Flag for Germany Weather past 2 weeks in Lüneburg, Lower Saxony, Germany

Now
54 °F

Passing clouds.


Feels Like: 49 °F
Forecast: 43 / 61 °F
Wind: 15 mph from Northwest

Location: Fassberg

Current Time: Sep 22, 2014 at 12:42:17 PM

Latest Report: Sep 22, 2014 at 11:20 AM


Visibility: N/A

Pressure: 29.89 "Hg

Humidity: 63%

Dew point: 41 °F

Location of LüneburgLocation

Historic Weather in Lüneburg — Graph

°F

Lüneburg temperature yesterday

Maximum temperature yesterday: 66 °F (at 4:20 PM)
Minimum temperature yesterday: 55 °F (at 12:20 AM)
Average temperature yesterday: 59 °F

Past Weeks' High & Low Weather Summary

 TemperatureHumidityPressure
High73 °F (Sep 16, 3:20 PM)100% (Sep 7, 9:50 PM)30.24 "Hg (Sep 7, 9:50 PM)
Low46 °F (Sep 8, 5:20 AM)46% (Sep 21, 4:20 PM)29.89 "Hg (Sep 19, 4:20 AM)
Average60 °F83%30.04 "Hg
* Reported Sep 7 11:20 AM — Sep 22 11:20 AM, Lüneburg, Weather by CustomWeather, © 2014

Note: Actual official high and low records may vary slightly from our data, if they occured in-between our weather recording intervals... More about our weather records

Advertising

Lüneburg weather history for previous 24 hours

 ConditionsComfort  
Time TempWeatherWind HumidityBarometerVisibility
11:20 AM
Sep 22
54 °FPassing clouds.15 mph63%29.89 "HgN/A
10:20 AM54 °FBroken clouds.17 mph72%29.89 "HgN/A
9:20 AM52 °FBroken clouds.14 mph82%29.89 "HgN/A
8:20 AM52 °FSprinkles. Partly sunny.14 mph82%29.89 "Hg4 mi
8:03 AM52 °FSprinkles. Passing clouds.14 mph77%29.89 "Hg4 mi
7:20 AM52 °FPartly cloudy.12 mph77%29.89 "HgN/A
6:20 AM54 °FPassing clouds.15 mph77%29.89 "HgN/A
5:20 AM54 °FPassing clouds.14 mph77%29.89 "HgN/A
4:20 AM52 °FPassing clouds.10 mph88%29.89 "HgN/A
3:20 AM52 °FPassing clouds.7 mph82%29.92 "HgN/A
2:20 AM52 °FPassing clouds.9 mph88%29.92 "HgN/A
1:20 AM54 °FPassing clouds.8 mph88%29.92 "HgN/A
12:20 AM55 °FPartly cloudy.12 mph82%29.92 "HgN/A
11:20 PM
Sep 21
55 °FPartly cloudy.12 mph82%29.92 "HgN/A
10:20 PM55 °FPassing clouds.10 mph82%29.92 "Hg6 mi
9:20 PM55 °FPassing clouds.8 mph82%29.92 "Hg6 mi
8:20 PM55 °FPassing clouds.7 mph77%29.92 "Hg6 mi
7:20 PM57 °FScattered clouds.13 mph77%29.92 "HgN/A
6:20 PM59 °FScattered showers. Partly sunny.20 mph68%29.92 "HgN/A
5:20 PM63 °FScattered clouds.16 mph56%29.92 "HgN/A
4:20 PM66 °FScattered clouds.18 mph46%29.92 "HgN/A
3:20 PM64 °FScattered clouds.13 mph52%29.92 "HgN/A
2:20 PM63 °FBroken clouds.14 mph59%29.92 "HgN/A
1:20 PM64 °FScattered clouds.10 mph60%29.92 "HgN/A
12:20 PM63 °FScattered clouds.16 mph64%29.92 "HgN/A
Weather by CustomWeather, © 2014

See weather overviewHow to use our weather pages